This demonstration page uses our WeatherBlox Daily Observations layout. Learn more.

Left ArrowRight Arrow

Hourly Observations for August 17, 2022

Temp ( °F °C ) Dew Point ( °F °C ) Humidity (%) Winds ( mph kmh ) Pressure ( in mb ) Visibility ( mi km ) Precip ( " mm )
12:56 am 00:56 Cloudy 64 17.8 63 17.2 96 96 Calm 30.16 1022 7 11 0.00 0.00
1:56 am 01:56 Cloudy with Mist and Fog 64 17.8 63 17.2 96 96 WNW 5 7 30.16 1021 6 10 0.00 0.00
2:56 am 02:56 Cloudy with Mist and Fog 64 17.8 63 17.2 96 96 NNE 5 7 30.16 1021 4 6 0.00 0.00
3:56 am 03:56 Cloudy with Mist and Fog 63 17.2 62 16.7 97 97 NNE 3 6 30.16 1021 4 6 0.00 0.00
4:56 am 04:56 Partly Cloudy with Mist and Fog 63 17.2 62 16.7 97 97 NNW 5 7 30.16 1021 4 6 0.00 0.00
5:17 am 05:17 Clear with Mist and Fog 61 16 61 16 100 100 N 7 11 30.15 1021 2 3 0.00 0.00
5:22 am 05:22 Partly Cloudy with Fog 61 16 59 15 94 94 N 7 11 30.15 1021 1 1 0.00 0.00
5:33 am 05:33 Mostly Cloudy with Mist and Fog 61 16 61 16 100 100 N 7 11 30.15 1021 1 2 0.00 0.00
5:36 am 05:36 Mostly Cloudy with Mist and Fog 61 16 61 16 100 100 N 7 11 30.15 1021 2 3 0.00 0.00
5:41 am 05:41 Mostly Cloudy with Mist and Fog 59 15 59 15 100 100 N 6 9 30.17 1022 1 1 0.00 0.00
5:45 am 05:45 Cloudy with Fog 59 15 57 14 94 94 N 6 9 30.17 1022 0 0 0.00 0.00
5:56 am 05:56 Cloudy with Fog 59 15 58 14.4 96 96 N 7 11 30.17 1022 0 0 0.00 0.00
6:56 am 06:56 Cloudy with Fog 58 14.4 57 13.9 97 97 NNE 5 7 30.19 1022 0 0 0.00 0.00
7:54 am 07:54 Cloudy with Mist and Fog 59 15 59 15 100 100 Calm 30.20 1023 1 1 0.00 0.00
7:56 am 07:56 Mostly Cloudy with Mist and Fog 59 15 59 15 100 100 NE 3 6 30.21 1023 1 2 0.00 0.00
8:03 am 08:03 Mostly Cloudy with Mist and Fog 61 16 59 15 94 94 NE 3 6 30.19 1022 3 5 0.00 0.00
8:13 am 08:13 Partly Cloudy with Mist and Fog 61 16 61 16 100 100 NE 5 7 30.19 1022 3 5 0.00 0.00
8:56 am 08:56 Sunny 64 17.8 62 16.7 93 93 VRB 3 6 30.21 1023 7 11 0.00 0.00
9:04 am 09:04 Mostly Sunny 64 18 63 17 94 94 NE 6 9 30.17 1022 8 13 0.00 0.00
9:56 am 09:56 Partly Cloudy 67 19.4 63 17.2 87 87 Calm 30.20 1023 10 16 0.00 0.00
10:05 am 10:05 Mostly Cloudy 68 20 63 17 83 83 E 3 6 30.16 1021 10 16 0.00 0.00
10:16 am 10:16 Mostly Cloudy 70 21 63 17 78 78 SE 5 7 30.15 1021 10 16 0.00 0.00
10:48 am 10:48 Partly Cloudy 72 22 63 17 73 73 VRB 3 6 30.14 1021 10 16 0.00 0.00
10:56 am 10:56 Partly Cloudy 71 21.7 63 17.2 76 76 VRB 5 7 30.19 1022 10 16 0.00 0.00
11:18 am 11:18 Mostly Cloudy 72 22 61 16 69 69 S 7 11 30.13 1020 10 16 0.00 0.00
11:39 am 11:39 Partly Cloudy 72 22 61 16 69 69 SE 8 13 30.13 1020 10 16 0.00 0.00
11:56 am 11:56 Partly Cloudy 72 22.2 61 16.1 68 68 SE 5 7 30.18 1022 10 16 0.00 0.00
12:56 pm 12:56 Mostly Cloudy 77 25 60 15.6 56 56 E 5 7 30.17 1022 10 16 0.00 0.00
1:56 pm 13:56 Mostly Cloudy 76 24.4 59 15 56 56 SSE 6 9 30.16 1021 10 16 0.00 0.00
2:56 pm 14:56 Partly Cloudy 79 26.1 60 15.6 52 52 SSE 7 11 30.15 1021 10 16 0.00 0.00
3:56 pm 15:56 Partly Cloudy 79 26.1 58 14.4 49 49 SSE 6 9 30.14 1021 10 16 0.00 0.00
4:56 pm 16:56 Partly Cloudy 80 26.7 58 14.4 47 47 SSE 7 11 30.12 1020 10 16 0.00 0.00
5:56 pm 17:56 Mostly Sunny 79 26.1 57 13.9 47 47 SSE 7 11 30.12 1020 10 16 0.00 0.00
6:56 pm 18:56 Sunny 79 26.1 60 15.6 52 52 SE 8 13 30.11 1020 10 16 0.00 0.00
7:56 pm 19:56 Sunny 75 23.9 61 16.1 62 62 ESE 7 11 30.10 1019 10 16 0.00 0.00
8:56 pm 20:56 Clear 68 20 62 16.7 81 81 ESE 6 9 30.12 1020 10 16 0.00 0.00
9:56 pm 21:56 Clear 66 18.9 61 16.1 84 84 SE 7 11 30.12 1020 10 16 0.00 0.00
10:56 pm 22:56 Clear 65 18.3 60 15.6 84 84 SSE 6 9 30.11 1020 10 16 0.00 0.00
11:56 pm 23:56 Clear 64 17.8 59 15 84 84 SSE 3 6 30.10 1019 10 16 0.00 0.00

Powered by AerisWeather